(43143) = 1998 QM89 = 1999 XA97

Discovered at Socorro on 1999-12-07 by LINEAR.

Orbit

Orbit type: Main Belt

Note: WebGL enabled browser required.

epoch2023-09-13.0
epoch JD2460200.5
perihelion date2023-04-02.22352
perihelion JD2460036.72352
argument of perihelion (°)272.20243
ascending node (°)265.09209
inclination (°)14.18573
eccentricity0.0461176
perihelion distance (AU)2.9593313
Tisserand w.r.t. Jupiter3.2
ΔV w.r.t. Earth (km/sec)11.6
semimajor axis (AU)3.1024069
mean anomaly (°)29.53978
mean daily motion (°/day)0.18036640
aphelion distance (AU)3.245
period (years)5.46
P-vector [x]-0.96852601
P-vector [y]0.13832484
P-vector [z]-0.20693864
Q-vector [x]-0.04836962
Q-vector [y]-0.92011365
Q-vector [z]-0.38865312
absolute magnitude13.97
phase slope0.15
uncertainty0
referenceMPEC 2024-A34
observations used1685
oppositions20
arc length (days)9039
first opposition used1998
last opposition used2023
residual rms (arc-secs)0.65
perturbers coarse indicatorM-v
perturbers precise indicator003Ek
first observation date used1998-08-24.0
last observation date used2023-05-24.0
computer nameMPCLINUX
JD of orbit computation2456966.929487
perihelion JD uncertainty (days)2.8576E-04
argument of perihelion uncertainty (°)5.2955E-05
ascending node uncertainty (°)1.7697E-05
inclination uncertainty (°)3.8694E-06
eccentricity uncertainty 4.0349E-08
perihelion distance uncertainty (AU)1.2556E-07
Minimum Orbit Intersection Distances (in AU)
for orbit epoch: 2460200.5, reference: E2024-A34
Mercury2.5547
Venus2.282
Earth2.00362
Mars1.4256
Jupiter1.91663
Saturn5.94802
Uranus15.5944
Neptune26.7141

Observations

1713 total observations over interval: 1998 08 24.38365 – 2023 05 24.186016
These data are available for download (format description).

Date (UT) J2000 RA J2000 Dec Magn Location Ref
1998 08 24.38365 23 58 38.66 +20 54 25.1 18.7   704 – Lincoln Laboratory ETS, New Mexico MPS 2088
1998 08 24.40001 23 58 38.01 +20 54 25.2 19.1   704 – Lincoln Laboratory ETS, New Mexico MPS 2088
1998 08 24.43258 23 58 37.03 +20 54 25.5 19.1   704 – Lincoln Laboratory ETS, New Mexico MPS 2088
1998 08 27.38976 23 56 58.97 +20 55 56.8 19.4   704 – Lincoln Laboratory ETS, New Mexico MPS 2088
1998 08 27.42469 23 56 57.69 +20 55 57.1 19.5   704 – Lincoln Laboratory ETS, New Mexico MPS 2088
1998 08 27.44219 23 56 57.05 +20 55 57.2 19.5   704 – Lincoln Laboratory ETS, New Mexico MPS 2088
1998 08 27.45967 23 56 56.25 +20 55 59.6 20.3   704 – Lincoln Laboratory ETS, New Mexico MPS 2088
1998 09 19.31796 23 41 02.07 +20 06 35.0 18.5 R 699 – Lowell Observatory-LONEOS MPS 51699
1998 09 19.34279 23 41 01.01 +20 06 30.5   699 – Lowell Observatory-LONEOS MPS 51699
1998 09 19.36691 23 40 59.85 +20 06 22.6   699 – Lowell Observatory-LONEOS MPS 51699
1999 11 14.42798 05 31 19.29 +27 16 54.5 19.1   704 – Lincoln Laboratory ETS, New Mexico MPS 8972
1999 11 14.44225 05 31 18.73 +27 16 52.3 19.4   704 – Lincoln Laboratory ETS, New Mexico MPS 8972
1999 11 14.48506 05 31 17.07 +27 16 44.0 19.2   704 – Lincoln Laboratory ETS, New Mexico MPS 8972
1999 11 16.29117 05 30 07.08 +27 10 52.5 18.7   704 – Lincoln Laboratory ETS, New Mexico MPS 10046
1999 11 16.30540 05 30 06.58 +27 10 49.0 18.9   704 – Lincoln Laboratory ETS, New Mexico MPS 10046
1999 11 16.33420 05 30 05.36 +27 10 43.4 18.6   704 – Lincoln Laboratory ETS, New Mexico MPS 10046
1999 11 16.34853 05 30 04.78 +27 10 40.3 18.7   704 – Lincoln Laboratory ETS, New Mexico MPS 10046
1999 12 07.29302 05 12 44.81 +25 45 34.6 19.0   704 – Lincoln Laboratory ETS, New Mexico MPS 8048
1999 12 07.30763 05 12 43.99 +25 45 31.3 18.9   704 – Lincoln Laboratory ETS, New Mexico MPS 8048
1999 12 07.32216 05 12 43.17 +25 45 26.4 18.8   704 – Lincoln Laboratory ETS, New Mexico MPS 8048
1999 12 07.33682 05 12 42.32 +25 45 22.9 18.9   704 – Lincoln Laboratory ETS, New Mexico MPS 8048
1999 12 07.35146 05 12 41.45 +25 45 18.5 19.3   704 – Lincoln Laboratory ETS, New Mexico MPS 8048
1999 12 10.27791 05 09 58.44 +25 31 10.5 17.9   704 – Lincoln Laboratory ETS, New Mexico MPS 8048
1999 12 10.30733 05 09 56.74 +25 31 01.7 17.8   704 – Lincoln Laboratory ETS, New Mexico MPS 8048
1999 12 10.32197 05 09 55.89 +25 30 58.2 17.0   704 – Lincoln Laboratory ETS, New Mexico MPS 8048
2000 01 03.22403 04 50 01.79 +23 28 22.0 19.2   704 – Lincoln Laboratory ETS, New Mexico MPS 8972
2000 01 03.23880 04 50 01.09 +23 28 18.1 19.0   704 – Lincoln Laboratory ETS, New Mexico MPS 8972
2000 01 03.25358 04 50 00.52 +23 28 14.1 19.0   704 – Lincoln Laboratory ETS, New Mexico MPS 8972
2000 01 03.26841 04 49 59.89 +23 28 11.4 19.6   704 – Lincoln Laboratory ETS, New Mexico MPS 8972
2000 01 03.28322 04 49 59.31 +23 28 05.2 19.2   704 – Lincoln Laboratory ETS, New Mexico MPS 8972
2000 01 04.15884 04 49 25.61 +23 23 42.5 19.1   704 – Lincoln Laboratory ETS, New Mexico MPS 8972
2000 01 04.17342 04 49 24.94 +23 23 38.4 19.5   704 – Lincoln Laboratory ETS, New Mexico MPS 8972
2000 01 04.18799 04 49 24.45 +23 23 33.8 19.4   704 – Lincoln Laboratory ETS, New Mexico MPS 8972
2000 01 04.20263 04 49 23.87 +23 23 29.9 19.2   704 – Lincoln Laboratory ETS, New Mexico MPS 8972
2000 01 04.21730 04 49 23.21 +23 23 25.0 19.4   704 – Lincoln Laboratory ETS, New Mexico MPS 8972
2000 12 31.64779 10 50 15.03 -09 22 22.3 19.8   608 – Haleakala-AMOS MPS 23743
2000 12 31.65813 10 50 15.03 -09 22 26.7 19.8   608 – Haleakala-AMOS MPS 23743
2000 12 31.66839 10 50 15.10 -09 22 31.1 20.0   608 – Haleakala-AMOS MPS 23743
2001 01 26.32082 10 45 10.25 -11 45 01.1 18.5   704 – Lincoln Laboratory ETS, New Mexico MPS 25089
2001 01 26.33643 10 45 09.80 -11 45 04.3 19.0   704 – Lincoln Laboratory ETS, New Mexico MPS 25089
2001 01 26.36626 10 45 08.88 -11 45 11.3 19.4   704 – Lincoln Laboratory ETS, New Mexico MPS 25089
2001 01 26.38127 10 45 08.47 -11 45 15.1 19.3   704 – Lincoln Laboratory ETS, New Mexico MPS 25089
2001 02 01.49901 10 41 53.15 -12 02 14.9 18.7   608 – Haleakala-AMOS MPS 25089
2001 02 01.51032 10 41 52.72 -12 02 15.8 19.1   608 – Haleakala-AMOS MPS 25089
2001 02 01.52055 10 41 52.34 -12 02 17.2 19.1   608 – Haleakala-AMOS MPS 25089
2001 03 23.23820 10 06 01.85 -09 53 35.0 19.0   704 – Lincoln Laboratory ETS, New Mexico MPS 27732
2001 03 23.25029 10 06 01.47 -09 53 30.6 19.6   704 – Lincoln Laboratory ETS, New Mexico MPS 27732
2001 03 23.26240 10 06 01.08 -09 53 26.1 19.3   704 – Lincoln Laboratory ETS, New Mexico MPS 27732
2001 03 23.27476 10 06 00.65 -09 53 21.6 18.8   704 – Lincoln Laboratory ETS, New Mexico MPS 27732
2001 03 27.38005 10 04 01.00 -09 29 14.8 18.9   608 – Haleakala-AMOS MPS 27732
2001 03 27.39054 10 04 00.71 -09 29 11.4 19.2   608 – Haleakala-AMOS MPS 27732
2001 03 27.40116 10 04 00.38 -09 29 07.8 19.1   608 – Haleakala-AMOS MPS 27732
2001 04 17.16542 09 59 36.65 -07 32 52.4 18.8 R 699 – Lowell Observatory-LONEOS MPS 34152
2001 04 17.19497 09 59 36.67 -07 32 43.9   699 – Lowell Observatory-LONEOS MPS 34152
2001 04 17.22671 09 59 36.64 -07 32 33.6   699 – Lowell Observatory-LONEOS MPS 34152
2001 04 17.25817 09 59 36.67 -07 32 25.1   699 – Lowell Observatory-LONEOS MPS 34152
2002 05 11.31049 16 43 09.54 -29 21 48.4 18.1   704 – Lincoln Laboratory ETS, New Mexico MPS 54436
2002 05 11.32550 16 43 08.83 -29 21 44.7 18.5   704 – Lincoln Laboratory ETS, New Mexico MPS 54436
2002 05 11.34049 16 43 08.20 -29 21 42.1 18.3   704 – Lincoln Laboratory ETS, New Mexico MPS 54436
2002 05 11.35620 16 43 07.45 -29 21 39.4 17.9   704 – Lincoln Laboratory ETS, New Mexico MPS 54436
2002 05 11.37118 16 43 06.68 -29 21 34.0 18.5   704 – Lincoln Laboratory ETS, New Mexico MPS 54436
2002 05 17.32253 16 38 30.38 -28 56 11.5 18.8   704 – Lincoln Laboratory ETS, New Mexico MPS 54436
2002 05 17.33772 16 38 29.58 -28 56 07.4 18.8   704 – Lincoln Laboratory ETS, New Mexico MPS 54436
2002 05 17.35288 16 38 28.80 -28 56 02.6 18.8   704 – Lincoln Laboratory ETS, New Mexico MPS 54436
2002 06 06.23486 16 21 28.53 -27 07 29.7 18.2   704 – Lincoln Laboratory ETS, New Mexico MPS 56998
2002 06 06.24833 16 21 27.81 -27 07 24.7 18.5   704 – Lincoln Laboratory ETS, New Mexico MPS 56998
2002 06 06.26190 16 21 27.12 -27 07 19.9 18.9   704 – Lincoln Laboratory ETS, New Mexico MPS 56998
2002 06 06.27535 16 21 26.41 -27 07 15.1 18.8   704 – Lincoln Laboratory ETS, New Mexico MPS 56998
2002 06 06.28946 16 21 25.69 -27 07 09.7 18.9   704 – Lincoln Laboratory ETS, New Mexico MPS 56998
2002 06 08.24580 16 19 48.22 -26 55 04.6 18.7   704 – Lincoln Laboratory ETS, New Mexico MPS 56998
2002 06 08.25122 16 19 48.03 -26 55 02.5 18.1   644 – Palomar Mountain/NEAT MPS 56998
2002 06 08.25959 16 19 47.57 -26 55 00.0 18.7   704 – Lincoln Laboratory ETS, New Mexico MPS 56998
2002 06 08.27339 16 19 46.82 -26 54 53.7 18.9   704 – Lincoln Laboratory ETS, New Mexico MPS 56998
2002 06 08.28720 16 19 46.16 -26 54 48.6 19.2   704 – Lincoln Laboratory ETS, New Mexico MPS 56998
2002 06 08.30101 16 19 45.43 -26 54 43.9 18.9   704 – Lincoln Laboratory ETS, New Mexico MPS 56998
2002 06 08.32241 16 19 44.41 -26 54 36.0 18.0   644 – Palomar Mountain/NEAT MPS 56998
2002 06 08.38599 16 19 41.18 -26 54 11.9 18.0   644 – Palomar Mountain/NEAT MPS 56998
2002 06 12.24102 16 16 36.42 -26 30 03.9 18.5   704 – Lincoln Laboratory ETS, New Mexico MPS 56998
2002 06 12.25464 16 16 35.79 -26 29 59.0 19.2   704 – Lincoln Laboratory ETS, New Mexico MPS 56998
2002 06 12.28185 16 16 34.49 -26 29 48.7 18.5   704 – Lincoln Laboratory ETS, New Mexico MPS 56998
2002 06 12.29556 16 16 33.79 -26 29 43.2 19.1   704 – Lincoln Laboratory ETS, New Mexico MPS 56998
2002 06 17.25602 16 12 53.28 -25 58 22.6 19.4   704 – Lincoln Laboratory ETS, New Mexico MPS 56998
2002 06 17.26980 16 12 52.69 -25 58 17.6 19.1   704 – Lincoln Laboratory ETS, New Mexico MPS 56998
2002 06 17.28358 16 12 52.12 -25 58 12.0 18.9   704 – Lincoln Laboratory ETS, New Mexico MPS 56998
2002 06 17.29737 16 12 51.45 -25 58 06.5 18.9   704 – Lincoln Laboratory ETS, New Mexico MPS 56998
2002 07 05.18619 16 03 22.09 -24 10 49.9 18.6   704 – Lincoln Laboratory ETS, New Mexico MPS 59500
